[[{"header":{"parameterUnit":"m.s-1","parameterCategory":1,"la1":30.2991,"la2":30.254,"lo1":-89.0895,"lo2":-89.0444,"dy":0.0017,"dx":0.0017,"nx":28,"ny":28,"refTime":"2024-09-30T21:00:00:Z","depth":0,"parameterNumber":2,"parameterNumberName":"U-component_of_WINDS"},"data":[0,0,0,0,0,0,0,0,0,0,0,0,0,0,0,0,0,0,0,0,0,0,0,0,0,0,0,0,0,0,0,0,0,0,0,0,0,0,0,0,0,0,0,0,0,0,0,0,0,0,0,0,0,0,0,0,0,0,-0.9644,-0.9644,0,-0.9596,-0.9596,-0.9595,-0.9503,-0.9502,-0.95,-0.9498,-0.9451,-0.9452,-0.9452,0,0,0,0,0,0,0,0,0,0,0,0,0,-0.9658,-0.9659,-0.9644,-0.9644,-0.9643,-0.9596,-0.9595,-0.9595,-0.9504,-0.9501,-0.9499,-0.9497,-0.9451,-0.9452,-0.9452,0,0,0,0,0,0,0,0,0,0,0,0,0,-0.9636,-0.9659,-0.9644,-0.9592,-0.9587,-0.9596,-0.9595,-0.9595,-0.9504,-0.9501,-0.9499,-0.9496,-0.9451,-0.9452,-0.9452,-0.951,0,0,-0.9454,-0.9454,0,0,0,0,0,0,0,0,-0.9637,-0.9635,-0.96,-0.9595,-0.959,-0.9553,-0.9583,-0.9566,-0.9505,-0.9536,-0.9498,-0.9495,-0.9487,-0.9485,-0.9482,-0.9508,-0.9506,-0.9454,-0.9455,-0.9455,-0.9455,0,0,0,0,0,0,0,-0.9639,-0.9637,-0.9625,-0.96,-0.9593,-0.9571,-0.9565,-0.958,-0.9527,-0.9533,-0.9526,-0.9521,-0.9484,-0.9481,-0.948,-0.9505,-0.9454,-0.9455,-0.9455,-0.9455,-0.9575,-0.9578,0,0,0,0,0,0,-0.9648,-0.9639,-0.9627,-0.9624,-0.9607,-0.9573,-0.9566,-0.9567,-0.9527,-0.9518,-0.9524,-0.9517,-0.9482,-0.9479,-0.9478,-0.9543,-0.9455,-0.9455,-0.9456,-0.9573,-0.9576,-0.9579,0,0,0,0,0,0,-0.9648,-0.9648,-0.9629,-0.9629,-0.9625,-0.9576,-0.9578,-0.9568,-0.9565,-0.952,-0.951,-0.9531,-0.9479,-0.9477,-0.9502,-0.954,-0.9456,-0.9456,-0.9569,-0.9574,-0.9578,-0.9674,0,0,0,0,0,0,-0.9649,-0.9648,-0.967,-0.963,-0.9626,-0.9654,-0.958,-0.9569,-0.9566,-0.9557,-0.9524,-0.9516,-0.9477,-0.9502,-0.9503,-0.9539,-0.9457,-0.9566,-0.9571,-0.9576,-0.9667,-0.968,-0.9692,0,0,0,0,0,-0.965,-0.9699,-0.9671,-0.967,-0.9651,-0.9656,-0.9653,-0.9607,-0.957,-0.9591,-0.9561,-0.9517,-0.9536,-0.9505,-0.9506,-0.9543,-0.9563,-0.957,-0.9576,-0.9661,-0.9678,-0.9692,0,0,0,0,0,0,-0.9745,-0.9693,-0.9661,-0.9699,-0.9683,-0.9641,-0.9666,-0.9626,-0.9621,-0.9613,-0.9556,-0.955,-0.9583,-0.9565,-0.9532,-0.9596,-0.9542,-0.9549,-0.9607,-0.9622,-0.9635,-0.9639,-0.9457,0,0,0,0,0,-0.977,-0.9778,-0.9732,-0.977,-0.9763,-0.9716,-0.9717,-0.9682,-0.9663,-0.9656,-0.9629,-0.9613,-0.9615,-0.9617,-0.9617,-0.9663,-0.9655,-0.9689,-0.9702,-0.9712,-0.9719,-0.9743,-0.9757,-0.96,-0.96,-0.96,0,0,-0.9822,-0.9795,-0.9804,-0.9788,-0.9771,-0.9781,-0.9711,-0.9725,-0.9732,-0.9658,-0.968,-0.966,-0.9638,-0.9674,-0.9689,-0.9661,-0.9761,-0.972,-0.9729,-0.973,-0.9751,-0.9766,-0.9779,-0.9604,-0.9603,-0.9603,0,0,-0.9923,-0.9903,-0.9932,-0.9916,-0.9891,-0.9859,-0.9866,-0.983,-0.9813,-0.9834,-0.978,-0.9787,-0.9792,-0.9779,-0.9773,-0.9867,-0.9826,-0.9868,-0.9935,-0.9959,-0.9971,-0.9982,-1.0016,-1.0029,-0.9875,-0.9875,-0.9876,0,-0.9991,-1.0004,-0.9952,-0.9969,-0.9964,-0.9897,-0.9926,-0.9914,-0.9891,-0.9889,-0.9857,-0.9861,-0.9842,-0.9874,-0.9897,-0.9894,-0.9901,-0.9873,-0.9974,-0.9984,-0.9993,-1.0025,-1.0038,-0.9881,-0.988,-0.988,-0.9879,0,-1.0089,-1.0099,-1.0125,-1.0103,-1.0101,-1.0125,-1.0077,-1.0081,-1.0047,-1.0019,-1.0041,-1.0015,-1.0008,-1.0013,-0.998,-1.004,-1.0023,-0.9984,-0.9928,-1.0014,-1.0044,-1.0055,-0.9889,-0.9887,-0.9885,-0.9884,0,0,-1.0249,-1.0198,-1.0209,-1.0198,-1.0165,-1.0171,-1.0191,-1.0184,-1.0189,-1.0174,-1.019,-1.0195,-1.0158,-1.0151,-1.0116,-1.0136,-1.0213,-1.0094,-1.0092,-1.0118,-1.0279,-1.031,-1.0325,-1.0185,-1.0187,-1.0189,-1.0281,0,-1.0343,-1.0374,-1.0328,-1.037,-1.0378,-1.0314,-1.0331,-1.0314,-1.0288,-1.0291,-1.0262,-1.0267,-1.0217,-1.0212,-1.023,-1.0201,-1.0245,-1.0193,-1.02,-1.0201,-1.0209,-1.034,-1.0373,-1.0461,-1.0292,-1.0294,-1.0295,0,-1.0457,-1.0448,-1.0491,-1.0454,-1.0456,-1.0473,-1.0462,-1.0466,-1.0444,-1.0423,-1.0416,-1.0373,-1.0391,-1.0336,-1.036,-1.0326,-1.0326,-1.0312,-1.0314,-1.0314,-1.0254,-1.0344,-1.0488,-1.0501,-1.0313,-1.0311,-1.031,0,-1.0571,-1.0569,-1.0594,-1.0586,-1.0545,-1.0558,-1.0542,-1.0517,-1.0515,-1.0506,-1.0504,-1.0497,-1.0493,-1.0489,-1.0446,-1.041,-1.0475,-1.0417,-1.046,-1.0461,-1.0477,-1.0477,-1.0624,-1.0476,-1.0476,-1.0476,-1.0475,0,-1.0681,-1.071,-1.0644,-1.066,-1.069,-1.0636,-1.0668,-1.0645,-1.0623,-1.0634,-1.0578,-1.0589,-1.0531,-1.0536,-1.0502,-1.0527,-1.0526,-1.051,-1.0501,-1.0516,-1.0518,-1.0516,-1.0509,-1.0479,-1.0478,-1.0478,-1.0477,0,-1.0813,-1.077,-1.0793,-1.0752,-1.0742,-1.0766,-1.0731,-1.0744,-1.0713,-1.0727,-1.0727,-1.0681,-1.0683,-1.064,-1.0634,-1.0611,-1.0652,-1.0631,-1.0659,-1.0653,-1.0698,-1.0695,-1.0849,-1.0867,-1.0708,-1.0709,-1.0711,0,-1.0887,-1.0907,-1.0868,-1.087,-1.0856,-1.0861,-1.0858,-1.0806,-1.0806,-1.0783,-1.0799,-1.0797,-1.0792,-1.08,-1.0766,-1.0761,-1.0741,-1.0795,-1.074,-1.0754,-1.0742,-1.0742,-1.0744,-1.0807,-1.0809,-1.0811,-1.0812,0,-1.1022,-1.1,-1.0998,-1.0989,-1.0988,-1.0978,-1.0965,-1.097,-1.0914,-1.0916,-1.0918,-1.0915,-1.0908,-1.0907,-1.0896,-1.0879,-1.0837,-1.083,-1.0839,-1.0855,-1.087,-1.0863,-1.0692,-1.0827,-1.0825,-1.0824,-1.0823,-1.0823,-1.1128,-1.1143,-1.1117,-1.1117,-1.1102,-1.1091,-1.1101,-1.1071,-1.1072,-1.1062,-1.1031,-1.1038,-1.1016,-1.0996,-1.0983,-1.0988,-1.0961,-1.0975,-1.0979,-1.0983,-1.0992,-1.0869,-1.0986,-1.0985,-1.0985,-1.0984,-1.0984,0,-1.1261,-1.1241,-1.1241,-1.1224,-1.1224,-1.1183,-1.1166,-1.1169,-1.1176,-1.1158,-1.1155,-1.1157,-1.1155,-1.1121,-1.1115,-1.1126,-1.1106,-1.1126,-1.1125,-1.1122,-1.1016,-1.1008,-1.1142,-1.1142,-1.1142,-1.1142,-1.1142,-1.1142,-1.133,-1.1353,-1.1328,-1.1343,-1.1323,-1.1329,-1.1323,-1.1313,-1.1298,-1.1303,-1.1301,-1.1278,-1.1253,-1.1245,-1.1242,-1.1232,-1.1233,-1.126,-1.1243,-1.1145,-1.113,-1.1115,-1.1108,-1.126,-1.126,-1.1349,-1.135,-1.135]},{"header":{"parameterUnit":"m.s-1","parameterCategory":1,"la1":30.2991,"la2":30.254,"lo1":-89.0895,"lo2":-89.0444,"dy":0.0017,"dx":0.0017,"nx":28,"ny":28,"refTime":"2024-09-30T21:00:00:Z","depth":0,"parameterNumber":3,"parameterNumberName":"V-component_of_WINDS"},"data":[0,0,0,0,0,0,0,0,0,0,0,0,0,0,0,0,0,0,0,0,0,0,0,0,0,0,0,0,0,0,0,0,0,0,0,0,0,0,0,0,0,0,0,0,0,0,0,0,0,0,0,0,0,0,0,0,0,0,-0.897,-0.8971,0,-0.9025,-0.9025,-0.9026,-0.9023,-0.9022,-0.9022,-0.9021,-0.9077,-0.9079,-0.9081,0,0,0,0,0,0,0,0,0,0,0,0,0,-0.8862,-0.8864,-0.897,-0.8971,-0.8971,-0.9025,-0.9025,-0.9026,-0.9023,-0.9022,-0.9021,-0.902,-0.9076,-0.9078,-0.9081,0,0,0,0,0,0,0,0,0,0,0,0,0,-0.8912,-0.8864,-0.897,-0.8976,-0.8977,-0.9025,-0.9026,-0.9026,-0.9023,-0.9022,-0.9021,-0.902,-0.9075,-0.9078,-0.9082,-0.9126,0,0,-0.9092,-0.9093,0,0,0,0,0,0,0,0,-0.8909,-0.8916,-0.8975,-0.8976,-0.8977,-0.9016,-0.9008,-0.906,-0.9024,-0.9006,-0.9021,-0.9019,-0.9057,-0.9062,-0.9075,-0.9128,-0.9131,-0.9092,-0.9094,-0.9095,-0.9096,0,0,0,0,0,0,0,-0.8906,-0.8913,-0.8992,-0.8975,-0.8977,-0.8976,-0.8982,-0.9018,-0.9038,-0.9007,-0.9007,-0.9014,-0.9058,-0.9072,-0.9076,-0.9132,-0.9092,-0.9095,-0.9097,-0.9098,-0.9224,-0.9225,0,0,0,0,0,0,-0.8901,-0.8911,-0.899,-0.8993,-0.894,-0.8979,-0.8986,-0.9005,-0.9037,-0.9041,-0.9015,-0.9014,-0.9067,-0.9072,-0.9078,-0.9132,-0.9095,-0.9099,-0.91,-0.9223,-0.9224,-0.9226,0,0,0,0,0,0,-0.8898,-0.8908,-0.8988,-0.8952,-0.8962,-0.8982,-0.9004,-0.9006,-0.902,-0.9043,-0.9046,-0.9025,-0.9066,-0.9073,-0.9114,-0.9134,-0.91,-0.9103,-0.9221,-0.9223,-0.9225,-0.9241,0,0,0,0,0,0,-0.8895,-0.8907,-0.8924,-0.8952,-0.8964,-0.9023,-0.9005,-0.9008,-0.9026,-0.9025,-0.9054,-0.9057,-0.9066,-0.9109,-0.9117,-0.9138,-0.9106,-0.9219,-0.9222,-0.9224,-0.9239,-0.9243,-0.9247,0,0,0,0,0,-0.8892,-0.8926,-0.8925,-0.8935,-0.8986,-0.9024,-0.9031,-0.904,-0.9028,-0.9045,-0.906,-0.9056,-0.913,-0.9113,-0.9122,-0.9145,-0.9218,-0.9221,-0.9224,-0.9237,-0.9242,-0.9247,0,0,0,0,0,0,-0.89,-0.893,-0.8929,-0.8974,-0.8997,-0.9023,-0.9046,-0.9045,-0.9071,-0.9069,-0.9079,-0.9085,-0.9126,-0.9139,-0.9119,-0.9189,-0.9173,-0.9178,-0.9179,-0.9185,-0.9189,-0.9185,-0.9108,0,0,0,0,0,-0.8907,-0.8936,-0.8961,-0.8998,-0.9009,-0.9025,-0.9042,-0.9047,-0.9071,-0.908,-0.9098,-0.912,-0.9149,-0.9167,-0.9195,-0.924,-0.9247,-0.926,-0.9264,-0.9268,-0.9272,-0.9297,-0.9304,-0.9236,-0.9236,-0.9236,0,0,-0.8922,-0.8942,-0.896,-0.9,-0.9018,-0.9047,-0.9034,-0.9065,-0.9087,-0.9085,-0.9125,-0.9138,-0.9164,-0.9207,-0.9227,-0.922,-0.9292,-0.9271,-0.9274,-0.9277,-0.9301,-0.9308,-0.9313,-0.9238,-0.9237,-0.9237,0,0,-0.8965,-0.8983,-0.9016,-0.9034,-0.9062,-0.9072,-0.908,-0.9107,-0.9116,-0.9156,-0.9155,-0.9181,-0.9229,-0.9248,-0.9264,-0.9313,-0.9311,-0.9322,-0.9344,-0.9369,-0.9374,-0.9379,-0.9397,-0.9403,-0.9326,-0.9326,-0.9326,0,-0.898,-0.9025,-0.9033,-0.9065,-0.9083,-0.9082,-0.9116,-0.9133,-0.9168,-0.918,-0.9171,-0.9232,-0.925,-0.9298,-0.931,-0.9322,-0.9332,-0.9319,-0.9372,-0.9377,-0.9382,-0.9399,-0.9406,-0.9327,-0.9327,-0.9327,-0.9327,0,-0.9042,-0.9073,-0.9097,-0.9131,-0.9151,-0.9183,-0.9197,-0.9216,-0.9219,-0.923,-0.9271,-0.9292,-0.9323,-0.9335,-0.9338,-0.9383,-0.9378,-0.937,-0.9354,-0.939,-0.9406,-0.9413,-0.9329,-0.9328,-0.9328,-0.9328,0,0,-0.9093,-0.9131,-0.9139,-0.9155,-0.9184,-0.9208,-0.9241,-0.9272,-0.9288,-0.9312,-0.934,-0.9381,-0.9374,-0.9392,-0.9397,-0.9419,-0.9457,-0.9409,-0.941,-0.9417,-0.9508,-0.9514,-0.9521,-0.9455,-0.9457,-0.9458,-0.9506,0,-0.9139,-0.9197,-0.9205,-0.9256,-0.9285,-0.9285,-0.9313,-0.9334,-0.9345,-0.9371,-0.9383,-0.9413,-0.9401,-0.9412,-0.9434,-0.9448,-0.9475,-0.9444,-0.9481,-0.9482,-0.9476,-0.953,-0.9536,-0.9581,-0.9513,-0.9514,-0.9514,0,-0.9201,-0.9227,-0.9281,-0.9307,-0.9319,-0.9344,-0.9373,-0.9398,-0.9422,-0.9428,-0.9448,-0.9451,-0.9484,-0.9466,-0.9512,-0.9491,-0.9506,-0.9515,-0.9517,-0.9522,-0.9501,-0.9536,-0.9596,-0.9602,-0.9524,-0.9524,-0.9523,0,-0.9233,-0.9281,-0.9319,-0.9332,-0.9364,-0.9381,-0.9395,-0.9418,-0.9436,-0.9461,-0.9473,-0.9502,-0.9518,-0.954,-0.955,-0.9535,-0.9595,-0.9578,-0.9602,-0.9602,-0.9615,-0.9614,-0.9678,-0.9624,-0.9624,-0.9624,-0.9624,0,-0.9284,-0.9317,-0.9334,-0.9358,-0.9395,-0.9404,-0.944,-0.9454,-0.9474,-0.95,-0.9501,-0.9525,-0.9537,-0.9563,-0.9571,-0.9608,-0.9615,-0.9621,-0.9623,-0.9622,-0.9621,-0.9633,-0.963,-0.9626,-0.9625,-0.9625,-0.9625,0,-0.9326,-0.9339,-0.9381,-0.9407,-0.9414,-0.9441,-0.9463,-0.9486,-0.9496,-0.953,-0.9538,-0.9555,-0.9586,-0.9598,-0.9635,-0.9641,-0.9684,-0.9683,-0.9676,-0.9677,-0.97,-0.9698,-0.9774,-0.9785,-0.9723,-0.9724,-0.9724,0,-0.9359,-0.9384,-0.9413,-0.943,-0.9445,-0.9473,-0.9492,-0.9501,-0.9521,-0.955,-0.9569,-0.96,-0.9625,-0.9674,-0.969,-0.9719,-0.9719,-0.9744,-0.9723,-0.9721,-0.972,-0.9719,-0.9721,-0.9748,-0.9748,-0.9749,-0.9749,0,-0.9414,-0.9419,-0.9446,-0.9475,-0.9497,-0.9521,-0.9543,-0.9558,-0.9571,-0.9592,-0.9624,-0.9643,-0.9682,-0.9712,-0.9742,-0.9755,-0.9755,-0.9755,-0.9763,-0.9762,-0.9757,-0.976,-0.9687,-0.9754,-0.9753,-0.9753,-0.9753,-0.9752,-0.9453,-0.9476,-0.95,-0.9529,-0.9547,-0.9568,-0.9591,-0.9605,-0.9632,-0.9664,-0.9668,-0.9702,-0.9725,-0.9764,-0.9779,-0.9806,-0.9799,-0.981,-0.9813,-0.9815,-0.9817,-0.9752,-0.9811,-0.9811,-0.9811,-0.9811,-0.9811,0,-0.9509,-0.9525,-0.9552,-0.9584,-0.9607,-0.9604,-0.9629,-0.9649,-0.9679,-0.97,-0.9725,-0.9761,-0.9791,-0.9809,-0.9838,-0.9856,-0.9857,-0.9864,-0.9863,-0.9866,-0.9821,-0.9812,-0.9863,-0.9863,-0.9863,-0.9863,-0.9863,-0.9863,-0.9542,-0.958,-0.9588,-0.9635,-0.965,-0.9684,-0.9698,-0.9717,-0.9735,-0.9775,-0.98,-0.9811,-0.9832,-0.9863,-0.989,-0.9894,-0.9905,-0.9913,-0.9917,-0.9875,-0.9869,-0.9864,-0.9856,-0.9915,-0.9915,-0.996,-0.996,-0.9961]}]]